Tiempo cada hora Cayambe

Hoy, 20 Abril, Martes

Tiempo Temperatura Precipitaciones Viento Presión Humedad
00:00 +11°C° 0 mm 1 mps 531 mmHg 86%
01:00 +11°C° 0 mm 1 mps 531 mmHg 86%
02:00 +10°C° 0 mm 1 mps 531 mmHg 86%
03:00 +10°C° 0 mm 1 mps 530 mmHg 85%
04:00 +10°C° 0 mm 1 mps 530 mmHg 85%
05:00 +10°C° 0 mm 1 mps 531 mmHg 85%
06:00 +10°C° 0 mm 1 mps 531 mmHg 84%
07:00 +10°C° 0 mm 2 mps 532 mmHg 83%
08:00 +13°C° 0 mm 2 mps 533 mmHg 76%
09:00 +15°C° 0 mm 2 mps 534 mmHg 68%
10:00 +16°C° 0 mm 2 mps 535 mmHg 61%
11:00 +17°C° 0.3 mm 2 mps 534 mmHg 62%
12:00 +17°C° 0.3 mm 2 mps 534 mmHg 64%
13:00 +17°C° 0.3 mm 2 mps 533 mmHg 65%
14:00 +16°C° 0.8 mm 2 mps 533 mmHg 69%
15:00 +15°C° 0.8 mm 2 mps 532 mmHg 74%
16:00 +15°C° 0.8 mm 1 mps 531 mmHg 79%
17:00 +14°C° 0.6 mm 1 mps 531 mmHg 84%
18:00 +13°C° 0.6 mm 1 mps 531 mmHg 89%
19:00 +12°C° 0.6 mm 1 mps 531 mmHg 94%
20:00 +12°C° 0.7 mm 1 mps 531 mmHg 94%
21:00 +12°C° 0.7 mm 1 mps 532 mmHg 94%
22:00 +12°C° 0.7 mm 1 mps 532 mmHg 94%
23:00 +11°C° 0.4 mm 1 mps 532 mmHg 94%

Mañana, 21 Abril, Miércoles

Tiempo Temperatura Precipitaciones Viento Presión Humedad
00:00 +10°C° 0.4 mm 0 mps 531 mmHg 95%
01:00 +10°C° 0.4 mm 0 mps 531 mmHg 95%
02:00 +11°C° 0.3 mm 1 mps 531 mmHg 96%
03:00 +10°C° 0.3 mm 1 mps 531 mmHg 96%
04:00 +10°C° 0.3 mm 1 mps 530 mmHg 97%
05:00 +10°C° 0.1 mm 1 mps 531 mmHg 96%
06:00 +9°C° 0.1 mm 0 mps 531 mmHg 95%
07:00 +9°C° 0.1 mm 0 mps 532 mmHg 94%
08:00 +10°C° 0.2 mm 0 mps 532 mmHg 91%
09:00 +11°C° 0.2 mm 1 mps 533 mmHg 88%
10:00 +12°C° 0.2 mm 1 mps 533 mmHg 86%
11:00 +12°C° 0.3 mm 1 mps 533 mmHg 84%
12:00 +13°C° 0.3 mm 1 mps 533 mmHg 83%
13:00 +13°C° 0.3 mm 1 mps 532 mmHg 81%
14:00 +13°C° 0.4 mm 1 mps 532 mmHg 81%
15:00 +13°C° 0.4 mm 1 mps 532 mmHg 81%
16:00 +13°C° 0.4 mm 1 mps 531 mmHg 81%
17:00 +13°C° 0.3 mm 1 mps 531 mmHg 85%
18:00 +12°C° 0.3 mm 1 mps 531 mmHg 88%
19:00 +11°C° 0.3 mm 1 mps 531 mmHg 92%
20:00 +11°C° 0.1 mm 1 mps 531 mmHg 91%
21:00 +11°C° 0.1 mm 1 mps 532 mmHg 90%
22:00 +11°C° 0.1 mm 1 mps 532 mmHg 89%
23:00 +11°C° 0 mm 1 mps 531 mmHg 88%

Pasado mañana, 22 Abril, Jueves

Tiempo Temperatura Precipitaciones Viento Presión Humedad
00:00 +11°C° 0 mm 1 mps 531 mmHg 87%
01:00 +10°C° 0 mm 1 mps 531 mmHg 86%
02:00 +10°C° 0 mm 1 mps 530 mmHg 86%
03:00 +10°C° 0 mm 1 mps 530 mmHg 85%
04:00 +9°C° 0 mm 0 mps 530 mmHg 84%
05:00 +10°C° 0 mm 1 mps 530 mmHg 83%
06:00 +11°C° 0 mm 1 mps 531 mmHg 82%
07:00 +11°C° 0 mm 1 mps 531 mmHg 81%
08:00 +13°C° 0.1 mm 1 mps 532 mmHg 76%
09:00 +14°C° 0.1 mm 1 mps 533 mmHg 71%
10:00 +16°C° 0.1 mm 2 mps 534 mmHg 66%
11:00 +16°C° 0.7 mm 2 mps 533 mmHg 69%
12:00 +15°C° 0.7 mm 2 mps 533 mmHg 72%
13:00 +15°C° 0.7 mm 1 mps 532 mmHg 74%
14:00 +15°C° 0.9 mm 1 mps 532 mmHg 76%
15:00 +14°C° 0.9 mm 1 mps 531 mmHg 78%
16:00 +14°C° 0.9 mm 1 mps 531 mmHg 80%
17:00 +13°C° 0.7 mm 1 mps 531 mmHg 85%
18:00 +13°C° 0.7 mm 1 mps 531 mmHg 90%
19:00 +12°C° 0.7 mm 1 mps 531 mmHg 94%
20:00 +11°C° 0.2 mm 1 mps 531 mmHg 94%
21:00 +11°C° 0.2 mm 1 mps 531 mmHg 94%
22:00 +11°C° 0.2 mm 1 mps 531 mmHg 93%
23:00 +10°C° 0 mm 0 mps 531 mmHg 94%

23 Abril, Viernes

Tiempo Temperatura Precipitaciones Viento Presión Humedad
00:00 +9°C° 0 mm 0 mps 531 mmHg 95%
01:00 +9°C° 0 mm 0 mps 530 mmHg 96%
02:00 +9°C° 0 mm 0 mps 530 mmHg 94%
03:00 +10°C° 0 mm 1 mps 530 mmHg 92%
04:00 +11°C° 0 mm 1 mps 530 mmHg 91%
05:00 +11°C° 0.1 mm 1 mps 531 mmHg 90%
06:00 +11°C° 0.1 mm 1 mps 531 mmHg 89%
07:00 +11°C° 0.1 mm 1 mps 531 mmHg 88%
08:00 +12°C° 0 mm 1 mps 532 mmHg 82%
09:00 +14°C° 0 mm 1 mps 533 mmHg 76%
10:00 +15°C° 0 mm 1 mps 534 mmHg 69%
11:00 +16°C° 0.6 mm 1 mps 533 mmHg 69%
12:00 +16°C° 0.6 mm 1 mps 533 mmHg 69%
13:00 +16°C° 0.6 mm 2 mps 533 mmHg 69%
14:00 +16°C° 1.3 mm 2 mps 532 mmHg 72%
15:00 +15°C° 1.3 mm 2 mps 531 mmHg 76%
16:00 +15°C° 1.3 mm 2 mps 531 mmHg 80%
17:00 +14°C° 1 mm 1 mps 531 mmHg 84%
18:00 +13°C° 1 mm 1 mps 531 mmHg 88%
19:00 +12°C° 1 mm 1 mps 531 mmHg 92%
20:00 +11°C° 0.2 mm 1 mps 531 mmHg 92%
21:00 +11°C° 0.2 mm 1 mps 531 mmHg 92%
22:00 +10°C° 0.2 mm 0 mps 531 mmHg 92%
23:00 +10°C° 0 mm 0 mps 531 mmHg 92%

24 Abril, Sábado

Tiempo Temperatura Precipitaciones Viento Presión Humedad
00:00 +10°C° 0 mm 0 mps 531 mmHg 91%
01:00 +10°C° 0 mm 0 mps 530 mmHg 91%
02:00 +9°C° 0 mm 0 mps 530 mmHg 92%
03:00 +9°C° 0 mm 0 mps 530 mmHg 92%
04:00 +9°C° 0 mm 0 mps 530 mmHg 92%
05:00 +10°C° 0 mm 1 mps 530 mmHg 90%
06:00 +10°C° 0 mm 1 mps 531 mmHg 88%
07:00 +11°C° 0 mm 1 mps 531 mmHg 87%
08:00 +13°C° 0 mm 1 mps 532 mmHg 80%
09:00 +14°C° 0 mm 1 mps 533 mmHg 73%
10:00 +16°C° 0 mm 2 mps 534 mmHg 66%
11:00 +17°C° 0.4 mm 2 mps 534 mmHg 66%
12:00 +17°C° 0.4 mm 2 mps 533 mmHg 65%
13:00 +17°C° 0.4 mm 2 mps 533 mmHg 64%
14:00 +17°C° 0.6 mm 2 mps 532 mmHg 68%
15:00 +16°C° 0.6 mm 2 mps 532 mmHg 72%
16:00 +15°C° 0.6 mm 2 mps 531 mmHg 77%
17:00 +14°C° 0.5 mm 1 mps 531 mmHg 82%
18:00 +13°C° 0.5 mm 1 mps 531 mmHg 88%
19:00 +12°C° 0.5 mm 1 mps 531 mmHg 94%
20:00 +11°C° 0.1 mm 1 mps 531 mmHg 94%
21:00 +11°C° 0.1 mm 1 mps 531 mmHg 94%
22:00 +10°C° 0.1 mm 0 mps 531 mmHg 93%
23:00 +10°C° 0 mm 1 mps 531 mmHg 92%

25 Abril, Domingo

Tiempo Temperatura Precipitaciones Viento Presión Humedad
00:00 +10°C° 0 mm 1 mps 530 mmHg 92%
01:00 +9°C° 0 mm 1 mps 530 mmHg 91%
02:00 +9°C° 0 mm 1 mps 530 mmHg 90%
03:00 +9°C° 0 mm 1 mps 529 mmHg 89%
04:00 +9°C° 0 mm 1 mps 529 mmHg 88%
05:00 +9°C° 0 mm 1 mps 530 mmHg 87%
06:00 +9°C° 0 mm 2 mps 530 mmHg 86%
07:00 +9°C° 0 mm 2 mps 531 mmHg 85%
08:00 +12°C° 0 mm 1 mps 532 mmHg 77%
09:00 +14°C° 0 mm 1 mps 533 mmHg 70%
10:00 +16°C° 0 mm 1 mps 534 mmHg 62%
11:00 +17°C° 0.2 mm 2 mps 534 mmHg 62%
12:00 +17°C° 0.2 mm 2 mps 533 mmHg 62%
13:00 +18°C° 0.2 mm 2 mps 533 mmHg 62%
14:00 +17°C° 1.2 mm 2 mps 532 mmHg 66%
15:00 +16°C° 1.2 mm 2 mps 532 mmHg 71%
16:00 +16°C° 1.2 mm 2 mps 531 mmHg 75%
17:00 +14°C° 0.8 mm 1 mps 531 mmHg 80%
18:00 +13°C° 0.8 mm 1 mps 531 mmHg 85%
19:00 +12°C° 0.8 mm 1 mps 531 mmHg 90%
20:00 +11°C° 0.2 mm 1 mps 531 mmHg 91%
21:00 +10°C° 0.2 mm 0 mps 531 mmHg 92%
22:00 +9°C° 0.2 mm 0 mps 531 mmHg 93%
23:00 +9°C° 0 mm 0 mps 531 mmHg 92%
Mostrar más

Necesitamos Su Consentimiento

Meteoprog y nuestros Proveedores de Servicios pueden almacenar y acceder a sus datos personales como cookies, identificadores de dispositivo u otras tecnologías similares de su dispositivo y procesar dichos datos para personalizar contenido y anuncios, además de ofrecer funciones de redes sociales y analizar el tráfico.

  • Almacenar y/o acceder a información en su dispositivo

    Se puede almacenar o acceder a cookies, identificadores de dispositivo u otra información de su dispositivo para los fines anteriormente indicados.

  • Anuncios y contenido personalizados, medición de anuncios y contenido, percepciones del público, y desarrollo de productos

    Los anuncios y el contenido pueden personalizarse en base a su perfil. Se pueden añadir más datos para personalizar mejor los anuncios y contenidos. Se puede medir el rendimiento de los anuncios y contenidos. Se puede obtener la percepción sobre el público que ha visto los anuncios y contenidos. Dichos datos pueden usarse para desarrollar o mejorar la experiencia del usuario, sistemas y software.

Al hacer clic en ‘Estoy De Acuerdo’ usted permitirá el uso de las cookies, identificadores de dispositivo, balizas web u otras tecnologías similares indicadas. Su configuración puede cambiarse desde el navegador de su dispositivo.

Para ciertos fines, los intereses legítimos pueden ser considerados por encima del consentimiento. Puede leer más sobre ello en nuestra Política de Privacidad y Cookies.